sat.trackr.live / text

‹ back to catalog

QIANFAN-9

NORAD 60387 · 2024-140J

PAYLOAD ACTIVE UNKNOWN

§ Identity

Operator
Country
PRC
Launch date
2024-08-06
Launch site
TAISC
Launch vehicle
Mass (kg)
RCS (m²)

External: N2YO · Heavens-Above · Gunter

§ Orbital elements

Epoch: 2026-09-22T22:30:42.589152Z

Period
106.59 min
Inclination
88.9668°
Eccentricity
0.0018420
Mean motion
13.51021891 rev/d
Perigee alt
1,054.8 km
Apogee alt
1,082.2 km
Semi-major
7,446.6 km
B*
5.2617e-5
RAAN
269.8412°
Arg perigee
96.1450°
Mean anomaly
264.1800°
Rev number
10,570

§ Raw data

QIANFAN-91 60387U 24140J   26265.93799293  .00000046  00000+0  52617-4 0  99912 60387  88.9668 269.8412 0018420  96.1450 264.1800 13.51021891105708

JSON: /api/v1/satellites/60387 · /tle

For live sub-satellite position, see the globe view (requires WebGL).

§ Visibility from observer

Set your observer location to see the next 7 days of passes ≥ 10°. The values pass through the URL so the page stays shareable.

No JS? Fill the form by hand. The geolocation button needs JavaScript.